Time,TemperatureF,DewpointF,PressureIn,WindDirection,WindDirectionDegrees,WindSpeedMPH,WindSpeedGustMPH,Humidity,HourlyPrecipIn,Conditions,Clouds,dailyrainin,SoftwareType,DateUTC
2013-02-21 00:00:00,38.3,22.2,29.79,WNW,293,9.2,19.5,52,0.00,,,0.02,WUHU216HW,2013-02-21 07:00:00,
2013-02-21 00:05:00,38.2,22.5,29.79,West,270,16.6,18.1,53,0.00,,,0.00,WUHU216HW,2013-02-21 07:05:00,
2013-02-21 00:10:00,38.2,22.5,29.79,West,270,11.2,28.9,53,0.00,,,0.00,WUHU216HW,2013-02-21 07:10:00,
2013-02-21 00:15:00,38.0,22.8,29.79,NW,315,14.5,28.9,54,0.00,,,0.00,WUHU216HW,2013-02-21 07:15:00,
2013-02-21 00:20:00,38.0,22.8,29.80,WNW,293,17.9,21.0,54,0.00,,,0.00,WUHU216HW,2013-02-21 07:20:00,
2013-02-21 00:25:00,38.0,23.1,29.80,NNW,338,11.9,23.0,55,0.00,,,0.00,WUHU216HW,2013-02-21 07:25:00,
2013-02-21 00:30:00,38.0,23.6,29.80,NNW,338,13.4,23.0,56,0.00,,,0.00,WUHU216HW,2013-02-21 07:30:00,
2013-02-21 00:35:00,38.2,23.8,29.80,NW,315,18.8,23.3,56,0.00,,,0.00,WUHU216HW,2013-02-21 07:35:00,
2013-02-21 00:40:00,38.2,23.8,29.81,WNW,293,13.9,23.3,56,0.00,,,0.00,WUHU216HW,2013-02-21 07:40:00,
2013-02-21 00:45:00,38.2,23.8,29.80,West,270,7.6,18.8,56,0.00,,,0.00,WUHU216HW,2013-02-21 07:45:00,
2013-02-21 00:50:00,38.0,23.6,29.81,West,270,13.0,18.6,56,0.00,,,0.00,WUHU216HW,2013-02-21 07:50:00,
2013-02-21 00:55:00,37.6,24.1,29.81,WSW,248,8.1,17.2,58,0.00,,,0.00,WUHU216HW,2013-02-21 07:55:00,
2013-02-21 01:00:00,37.3,24.2,29.81,WSW,248,6.3,18.8,59,0.00,,,0.00,WUHU216HW,2013-02-21 08:00:00,
2013-02-21 01:05:00,37.1,24.9,29.81,WSW,248,13.0,18.8,61,0.00,,,0.00,WUHU216HW,2013-02-21 08:05:00,
2013-02-21 01:10:00,36.7,24.2,29.81,WNW,293,11.4,16.1,60,0.00,,,0.00,WUHU216HW,2013-02-21 08:10:00,
2013-02-21 01:15:00,36.9,24.4,29.81,NW,315,11.0,16.1,60,0.00,,,0.00,WUHU216HW,2013-02-21 08:15:00,
2013-02-21 01:20:00,36.9,24.4,29.81,NW,315,4.9,15.9,60,0.00,,,0.00,WUHU216HW,2013-02-21 08:20:00,
2013-02-21 01:25:00,36.9,24.4,29.81,NNW,338,5.8,17.0,60,0.00,,,0.00,WUHU216HW,2013-02-21 08:25:00,
2013-02-21 01:30:00,36.9,23.5,29.81,WSW,248,5.4,17.0,58,0.00,,,0.00,WUHU216HW,2013-02-21 08:30:00,
2013-02-21 01:35:00,37.1,23.7,29.81,NNW,338,10.5,17.9,58,0.00,,,0.00,WUHU216HW,2013-02-21 08:35:00,
2013-02-21 01:40:00,37.1,24.1,29.81,West,270,11.4,17.9,59,0.00,,,0.00,WUHU216HW,2013-02-21 08:40:00,
2013-02-21 01:45:00,37.3,23.4,29.81,West,270,4.3,15.7,57,0.00,,,0.00,WUHU216HW,2013-02-21 08:45:00,
2013-02-21 01:50:00,37.6,22.0,29.81,WNW,293,7.2,17.7,53,0.00,,,0.00,WUHU216HW,2013-02-21 08:50:00,
2013-02-21 01:55:00,38.0,20.5,29.81,NNW,338,14.5,17.7,49,0.00,,,0.00,WUHU216HW,2013-02-21 08:55:00,
2013-02-21 02:00:00,37.8,20.4,29.82,West,270,12.3,17.0,49,0.00,,,0.00,WUHU216HW,2013-02-21 09:00:00,
2013-02-21 02:05:00,37.8,20.9,29.82,West,270,7.6,19.0,50,0.00,,,0.00,WUHU216HW,2013-02-21 09:05:00,
2013-02-21 02:10:00,37.4,21.4,29.82,NW,315,8.3,19.0,52,0.00,,,0.00,WUHU216HW,2013-02-21 09:10:00,
2013-02-21 02:15:00,37.8,20.9,29.81,West,270,10.5,14.3,50,0.00,,,0.00,WUHU216HW,2013-02-21 09:15:00,
2013-02-21 02:20:00,37.4,21.4,29.82,West,270,15.2,15.2,52,0.00,,,0.00,WUHU216HW,2013-02-21 09:20:00,
2013-02-21 02:25:00,37.1,20.2,29.82,NW,315,15.4,17.9,50,0.00,,,0.00,WUHU216HW,2013-02-21 09:25:00,
2013-02-21 02:30:00,36.9,21.3,29.82,WNW,293,13.4,17.9,53,0.00,,,0.00,WUHU216HW,2013-02-21 09:30:00,
2013-02-21 02:35:00,36.7,20.4,29.81,West,270,12.8,17.4,51,0.00,,,0.00,WUHU216HW,2013-02-21 09:35:00,
2013-02-21 02:40:00,36.5,19.7,29.81,NW,315,15.4,18.3,50,0.00,,,0.00,WUHU216HW,2013-02-21 09:40:00,
2013-02-21 02:45:00,36.5,19.7,29.81,SW,225,10.5,18.6,50,0.00,,,0.00,WUHU216HW,2013-02-21 09:45:00,
2013-02-21 02:50:00,36.4,19.5,29.81,NNW,338,9.8,19.2,50,0.00,,,0.00,WUHU216HW,2013-02-21 09:50:00,
2013-02-21 02:55:00,36.0,20.5,29.82,WNW,293,9.6,21.0,53,0.00,,,0.00,WUHU216HW,2013-02-21 09:55:00,
2013-02-21 03:00:00,36.0,20.1,29.83,WSW,248,15.7,22.4,52,0.00,,,0.00,WUHU216HW,2013-02-21 10:00:00,
2013-02-21 03:05:00,35.6,20.2,29.82,West,270,16.3,24.2,53,0.00,,,0.00,WUHU216HW,2013-02-21 10:05:00,
2013-02-21 03:10:00,35.3,21.6,29.81,West,270,12.3,24.2,57,0.00,,,0.00,WUHU216HW,2013-02-21 10:10:00,
2013-02-21 03:15:00,35.1,21.8,29.81,West,270,14.3,20.8,58,0.00,,,0.00,WUHU216HW,2013-02-21 10:15:00,
2013-02-21 03:20:00,34.6,22.5,29.81,West,270,13.9,21.0,61,0.00,,,0.00,WUHU216HW,2013-02-21 10:20:00,
2013-02-21 03:25:00,34.2,22.5,29.81,WSW,248,14.3,21.5,62,0.00,,,0.00,WUHU216HW,2013-02-21 10:25:00,
2013-02-21 03:30:00,34.0,22.3,29.82,WNW,293,16.6,25.7,62,0.00,,,0.00,WUHU216HW,2013-02-21 10:30:00,
2013-02-21 03:35:00,33.8,21.8,29.82,West,270,13.4,25.7,61,0.00,,,0.00,WUHU216HW,2013-02-21 10:35:00,
2013-02-21 03:40:00,33.8,21.8,29.82,WSW,248,12.5,20.8,61,0.00,,,0.00,WUHU216HW,2013-02-21 10:40:00,
2013-02-21 03:45:00,33.8,21.4,29.83,NW,315,5.6,24.6,60,0.00,,,0.00,WUHU216HW,2013-02-21 10:45:00,
2013-02-21 03:50:00,33.7,22.0,29.82,West,270,9.4,24.6,62,0.00,,,0.00,WUHU216HW,2013-02-21 10:50:00,
2013-02-21 03:55:00,33.5,21.8,29.82,WNW,293,13.6,19.5,62,0.00,,,0.00,WUHU216HW,2013-02-21 10:55:00,
2013-02-21 04:00:00,33.5,21.8,29.83,WNW,293,19.0,19.5,62,0.00,,,0.00,WUHU216HW,2013-02-21 11:00:00,
2013-02-21 04:05:00,33.5,21.8,29.82,West,270,10.5,19.5,62,0.00,,,0.00,WUHU216HW,2013-02-21 11:05:00,
2013-02-21 04:10:00,33.3,21.7,29.82,WSW,248,15.4,20.1,62,0.00,,,0.00,WUHU216HW,2013-02-21 11:10:00,
2013-02-21 04:15:00,33.5,21.1,29.83,NNW,338,11.6,20.1,60,0.00,,,0.00,WUHU216HW,2013-02-21 11:15:00,
2013-02-21 04:20:00,33.5,21.4,29.82,WSW,248,12.5,24.2,61,0.00,,,0.00,WUHU216HW,2013-02-21 11:20:00,
2013-02-21 04:25:00,33.5,21.1,29.83,SW,225,7.6,24.2,60,0.00,,,0.00,WUHU216HW,2013-02-21 11:25:00,
2013-02-21 04:30:00,33.1,21.5,29.83,West,270,21.9,21.9,62,0.00,,,0.00,WUHU216HW,2013-02-21 11:30:00,
2013-02-21 04:35:00,32.9,21.3,29.83,WNW,293,13.9,21.9,62,0.00,,,0.00,WUHU216HW,2013-02-21 11:35:00,
2013-02-21 04:40:00,32.9,21.3,29.83,SW,225,18.8,21.9,62,0.00,,,0.00,WUHU216HW,2013-02-21 11:40:00,
2013-02-21 04:45:00,33.1,20.8,29.83,West,270,17.7,21.5,60,0.00,,,0.00,WUHU216HW,2013-02-21 11:45:00,
2013-02-21 04:50:00,33.5,20.3,29.83,WSW,248,11.4,21.5,58,0.00,,,0.00,WUHU216HW,2013-02-21 11:50:00,
2013-02-21 04:55:00,33.7,19.5,29.83,West,270,18.8,24.2,56,0.00,,,0.00,WUHU216HW,2013-02-21 11:55:00,
2013-02-21 05:00:00,33.7,20.0,29.82,WSW,248,17.9,24.2,57,0.00,,,0.00,WUHU216HW,2013-02-21 12:00:00,
2013-02-21 05:05:00,33.3,21.0,29.83,WSW,248,16.6,24.4,60,0.00,,,0.00,WUHU216HW,2013-02-21 12:05:00,
2013-02-21 05:10:00,32.9,21.3,29.82,SW,225,11.6,24.4,62,0.00,,,0.00,WUHU216HW,2013-02-21 12:10:00,
2013-02-21 05:15:00,32.9,21.3,29.81,WSW,248,18.6,24.2,62,0.00,,,0.00,WUHU216HW,2013-02-21 12:15:00,
2013-02-21 05:20:00,32.9,21.3,29.81,West,270,14.5,29.8,62,0.00,,,0.00,WUHU216HW,2013-02-21 12:20:00,
2013-02-21 05:25:00,33.1,21.2,29.80,WSW,248,11.9,29.8,61,0.00,,,0.00,WUHU216HW,2013-02-21 12:25:00,
2013-02-21 05:30:00,33.1,21.2,29.80,WSW,248,22.1,26.2,61,0.00,,,0.00,WUHU216HW,2013-02-21 12:30:00,
2013-02-21 05:35:00,33.3,21.0,29.79,WNW,293,25.5,30.6,60,0.00,,,0.00,WUHU216HW,2013-02-21 12:35:00,
2013-02-21 05:40:00,33.1,20.3,29.78,WSW,248,25.9,30.6,59,0.00,,,0.00,WUHU216HW,2013-02-21 12:40:00,
2013-02-21 05:45:00,33.3,20.5,29.77,West,270,26.8,30.9,59,0.00,,,0.00,WUHU216HW,2013-02-21 12:45:00,
2013-02-21 05:50:00,33.1,20.3,29.77,WNW,293,21.7,30.9,59,0.00,,,0.00,WUHU216HW,2013-02-21 12:50:00,
2013-02-21 05:55:00,33.1,20.3,29.77,West,270,19.0,34.0,59,0.00,,,0.00,WUHU216HW,2013-02-21 12:55:00,
2013-02-21 06:00:00,33.1,20.3,29.79,SW,225,19.5,34.0,59,0.00,,,0.00,WUHU216HW,2013-02-21 13:00:00,
2013-02-21 06:05:00,32.9,20.2,29.81,WSW,248,21.5,27.3,59,0.00,,,0.00,WUHU216HW,2013-02-21 13:05:00,
2013-02-21 06:10:00,32.9,20.2,29.82,WNW,293,8.7,25.1,59,0.00,,,0.00,WUHU216HW,2013-02-21 13:10:00,
2013-02-21 06:15:00,32.9,20.2,29.83,WNW,293,4.3,25.1,59,0.00,,,0.00,WUHU216HW,2013-02-21 13:15:00,
2013-02-21 06:20:00,33.1,20.3,29.84,WSW,248,2.2,13.6,59,0.00,,,0.00,WUHU216HW,2013-02-21 13:20:00,
2013-02-21 06:25:00,32.9,19.7,29.86,West,270,11.4,13.4,58,0.00,,,0.00,WUHU216HW,2013-02-21 13:25:00,
2013-02-21 06:30:00,33.1,19.9,29.87,NW,315,5.1,13.4,58,0.00,,,0.00,WUHU216HW,2013-02-21 13:30:00,
2013-02-21 06:35:00,33.1,19.4,29.89,ESE,113,4.7,11.4,57,0.00,,,0.00,WUHU216HW,2013-02-21 13:35:00,
2013-02-21 06:40:00,33.1,19.9,29.89,ESE,113,4.9,11.2,58,0.00,,,0.00,WUHU216HW,2013-02-21 13:40:00,
2013-02-21 06:45:00,33.1,20.3,29.89,SE,135,4.7,11.2,59,0.00,,,0.00,WUHU216HW,2013-02-21 13:45:00,
2013-02-21 06:50:00,32.9,20.6,29.90,East,90,5.4,8.5,60,0.00,,,0.00,WUHU216HW,2013-02-21 13:50:00,
2013-02-21 06:55:00,33.3,20.5,29.91,East,90,4.3,8.3,59,0.00,,,0.00,WUHU216HW,2013-02-21 13:55:00,
2013-02-21 07:00:00,33.5,20.7,29.91,North,0,4.3,9.8,59,0.00,,,0.00,WUHU216HW,2013-02-21 14:00:00,
2013-02-21 07:05:00,33.8,20.5,29.92,NNE,23,4.0,9.8,58,0.00,,,0.00,WUHU216HW,2013-02-21 14:05:00,
2013-02-21 07:10:00,34.2,20.5,29.93,North,0,1.3,7.8,57,0.00,,,0.00,WUHU216HW,2013-02-21 14:10:00,
2013-02-21 07:15:00,34.6,20.0,29.93,NW,315,5.6,5.6,55,0.00,,,0.00,WUHU216HW,2013-02-21 14:15:00,
2013-02-21 07:20:00,34.9,19.9,29.92,West,270,4.7,8.5,54,0.00,,,0.00,WUHU216HW,2013-02-21 14:20:00,
2013-02-21 07:25:00,35.5,20.0,29.92,West,270,9.8,13.4,53,0.00,,,0.00,WUHU216HW,2013-02-21 14:25:00,
2013-02-21 07:30:00,35.8,19.5,29.91,NW,315,12.1,20.4,51,0.00,,,0.00,WUHU216HW,2013-02-21 14:30:00,
2013-02-21 07:35:00,35.8,19.9,29.91,WNW,293,18.3,20.4,52,0.00,,,0.00,WUHU216HW,2013-02-21 14:35:00,
2013-02-21 07:40:00,35.6,19.8,29.92,WNW,293,10.5,18.3,52,0.00,,,0.00,WUHU216HW,2013-02-21 14:40:00,
2013-02-21 07:45:00,35.6,19.8,29.92,NNW,338,9.8,18.1,52,0.00,,,0.00,WUHU216HW,2013-02-21 14:45:00,
2013-02-21 07:50:00,35.8,19.9,29.92,West,270,10.5,17.4,52,0.00,,,0.00,WUHU216HW,2013-02-21 14:50:00,
2013-02-21 07:55:00,36.0,20.1,29.92,WNW,293,8.5,13.4,52,0.00,,,0.00,WUHU216HW,2013-02-21 14:55:00,
2013-02-21 08:00:00,36.0,20.1,29.93,WNW,293,6.3,15.9,52,0.00,,,0.00,WUHU216HW,2013-02-21 15:00:00,
2013-02-21 08:05:00,36.4,20.4,29.94,WNW,293,9.6,15.9,52,0.00,,,0.00,WUHU216HW,2013-02-21 15:05:00,
2013-02-21 08:10:00,36.9,20.4,29.95,SSE,158,5.4,9.8,51,0.00,,,0.00,WUHU216HW,2013-02-21 15:10:00,
2013-02-21 08:15:00,37.3,20.8,29.96,WSW,248,4.0,9.8,51,0.00,,,0.00,WUHU216HW,2013-02-21 15:15:00,
2013-02-21 08:20:00,37.6,20.7,29.96,SW,225,4.3,5.6,50,0.00,,,0.00,WUHU216HW,2013-02-21 15:20:00,
2013-02-21 08:25:00,38.0,21.0,29.96,SW,225,3.8,8.5,50,0.00,,,0.00,WUHU216HW,2013-02-21 15:25:00,
2013-02-21 08:30:00,38.3,21.3,29.96,SSW,203,2.9,8.5,50,0.00,,,0.00,WUHU216HW,2013-02-21 15:30:00,
2013-02-21 08:35:00,38.7,21.2,29.96,WSW,248,4.0,8.5,49,0.00,,,0.00,WUHU216HW,2013-02-21 15:35:00,
2013-02-21 08:40:00,38.7,21.2,29.96,WSW,248,8.1,9.2,49,0.00,,,0.00,WUHU216HW,2013-02-21 15:40:00,
2013-02-21 08:45:00,38.5,21.0,29.96,West,270,6.3,9.6,49,0.00,,,0.00,WUHU216HW,2013-02-21 15:45:00,
2013-02-21 08:50:00,38.0,21.0,29.96,WSW,248,7.6,10.7,50,0.00,,,0.00,WUHU216HW,2013-02-21 15:50:00,
2013-02-21 08:55:00,38.2,21.2,29.96,West,270,5.1,10.7,50,0.00,,,0.00,WUHU216HW,2013-02-21 15:55:00,
2013-02-21 09:00:00,38.5,21.5,29.96,SSW,203,2.7,11.4,50,0.00,,,0.00,WUHU216HW,2013-02-21 16:00:00,
2013-02-21 09:05:00,39.2,21.1,29.95,NNW,338,4.9,12.8,48,0.00,,,0.00,WUHU216HW,2013-02-21 16:05:00,
2013-02-21 09:10:00,39.4,21.8,29.94,NW,315,2.5,13.6,49,0.00,,,0.00,WUHU216HW,2013-02-21 16:10:00,
2013-02-21 09:15:00,40.0,22.2,29.94,West,270,16.6,16.6,49,0.00,,,0.00,WUHU216HW,2013-02-21 16:15:00,
2013-02-21 09:20:00,40.0,21.8,29.94,SW,225,5.4,16.6,48,0.00,,,0.00,WUHU216HW,2013-02-21 16:20:00,
2013-02-21 09:25:00,40.0,21.8,29.94,WSW,248,10.5,15.9,48,0.00,,,0.00,WUHU216HW,2013-02-21 16:25:00,
2013-02-21 09:30:00,40.0,21.8,29.94,NW,315,7.8,16.6,48,0.00,,,0.00,WUHU216HW,2013-02-21 16:30:00,
2013-02-21 09:35:00,40.0,21.8,29.94,WSW,248,9.8,16.8,48,0.00,,,0.00,WUHU216HW,2013-02-21 16:35:00,
2013-02-21 09:40:00,40.0,21.8,29.94,West,270,8.5,17.9,48,0.00,,,0.00,WUHU216HW,2013-02-21 16:40:00,
2013-02-21 09:45:00,40.3,21.5,29.94,NW,315,13.2,17.9,47,0.00,,,0.00,WUHU216HW,2013-02-21 16:45:00,
2013-02-21 09:50:00,40.7,21.9,29.94,SW,225,9.8,17.9,47,0.00,,,0.00,WUHU216HW,2013-02-21 16:50:00,
2013-02-21 09:55:00,40.7,21.9,29.94,WSW,248,8.5,17.9,47,0.00,,,0.00,WUHU216HW,2013-02-21 16:55:00,
2013-02-21 10:00:00,41.0,22.2,29.94,WNW,293,11.9,17.9,47,0.00,,,0.00,WUHU216HW,2013-02-21 17:00:00,
2013-02-21 10:05:00,41.2,21.9,29.94,WSW,248,9.8,17.0,46,0.00,,,0.00,WUHU216HW,2013-02-21 17:05:00,
2013-02-21 10:10:00,41.6,22.2,29.94,West,270,11.2,17.2,46,0.00,,,0.00,WUHU216HW,2013-02-21 17:10:00,
2013-02-21 10:15:00,42.3,22.3,29.94,WSW,248,8.5,17.2,45,0.00,,,0.00,WUHU216HW,2013-02-21 17:15:00,
2013-02-21 10:20:00,42.8,22.3,29.94,NW,315,0.4,13.4,44,0.00,,,0.00,WUHU216HW,2013-02-21 17:20:00,
2013-02-21 10:25:00,43.4,22.8,29.94,WNW,293,3.4,10.5,44,0.00,,,0.00,WUHU216HW,2013-02-21 17:25:00,
2013-02-21 10:30:00,43.9,23.3,29.94,SSW,203,1.8,7.6,44,0.00,,,0.00,WUHU216HW,2013-02-21 17:30:00,
2013-02-21 10:35:00,44.3,22.5,29.94,WSW,248,14.5,17.2,42,0.00,,,0.00,WUHU216HW,2013-02-21 17:35:00,
2013-02-21 10:40:00,43.7,22.6,29.94,NW,315,12.1,17.2,43,0.00,,,0.00,WUHU216HW,2013-02-21 17:40:00,
2013-02-21 10:45:00,43.7,22.1,29.94,SSW,203,6.5,15.7,42,0.00,,,0.00,WUHU216HW,2013-02-21 17:45:00,
2013-02-21 10:50:00,43.6,21.9,29.93,WNW,293,11.4,18.1,42,0.00,,,0.00,WUHU216HW,2013-02-21 17:50:00,
2013-02-21 10:55:00,43.7,22.6,29.93,WNW,293,18.1,18.1,43,0.00,,,0.00,WUHU216HW,2013-02-21 17:55:00,
2013-02-21 11:00:00,43.6,21.9,29.94,WSW,248,8.9,18.1,42,0.00,,,0.00,WUHU216HW,2013-02-21 18:00:00,
2013-02-21 11:05:00,43.7,23.1,29.92,NNW,338,11.4,18.1,44,0.00,,,0.00,WUHU216HW,2013-02-21 18:05:00,
2013-02-21 11:10:00,43.9,22.8,29.93,WNW,293,12.5,14.5,43,0.00,,,0.00,WUHU216HW,2013-02-21 18:10:00,
2013-02-21 11:15:00,44.3,22.5,29.92,WSW,248,17.7,18.8,42,0.00,,,0.00,WUHU216HW,2013-02-21 18:15:00,
2013-02-21 11:20:00,44.3,22.5,29.93,West,270,11.4,18.8,42,0.00,,,0.00,WUHU216HW,2013-02-21 18:20:00,
2013-02-21 11:26:00,44.3,22.5,29.93,West,270,12.1,17.9,42,0.00,,,0.00,WUHU216HW,2013-02-21 18:26:00,
2013-02-21 11:31:00,44.6,22.9,29.92,WSW,248,15.0,18.8,42,0.00,,,0.00,WUHU216HW,2013-02-21 18:31:00,
2013-02-21 11:36:00,44.6,22.9,29.93,WNW,293,10.3,18.8,42,0.00,,,0.00,WUHU216HW,2013-02-21 18:36:00,
2013-02-21 11:41:00,44.8,23.1,29.93,WNW,293,11.9,18.8,42,0.00,,,0.00,WUHU216HW,2013-02-21 18:41:00,
2013-02-21 11:46:00,45.0,23.2,29.93,West,270,16.8,20.1,42,0.00,,,0.00,WUHU216HW,2013-02-21 18:46:00,
2013-02-21 11:51:00,45.5,23.1,29.94,WNW,293,11.4,20.1,41,0.00,,,0.00,WUHU216HW,2013-02-21 18:51:00,
2013-02-21 11:56:00,45.7,23.3,29.93,West,270,8.9,19.0,41,0.00,,,0.00,WUHU216HW,2013-02-21 18:56:00,
2013-02-21 12:01:00,46.1,23.6,29.94,West,270,12.1,17.4,41,0.00,,,0.00,WUHU216HW,2013-02-21 19:01:00,
2013-02-21 12:06:00,46.4,23.4,29.94,WNW,293,8.1,16.1,40,0.00,,,0.00,WUHU216HW,2013-02-21 19:06:00,
2013-02-21 12:11:00,47.2,23.4,29.94,WNW,293,6.9,14.5,39,0.00,,,0.00,WUHU216HW,2013-02-21 19:11:00,
2013-02-21 12:16:00,47.5,23.0,29.94,WNW,293,6.0,12.8,38,0.00,,,0.00,WUHU216HW,2013-02-21 19:16:00,
2013-02-21 12:21:00,47.3,22.9,29.94,SW,225,9.2,13.4,38,0.00,,,0.00,WUHU216HW,2013-02-21 19:21:00,
2013-02-21 12:26:00,47.3,22.9,29.94,SW,225,8.5,14.3,38,0.00,,,0.00,WUHU216HW,2013-02-21 19:26:00,
2013-02-21 12:31:00,47.9,23.4,29.94,NW,315,10.3,14.3,38,0.00,,,0.00,WUHU216HW,2013-02-21 19:31:00,
2013-02-21 12:36:00,47.9,23.4,29.93,NW,315,5.1,13.2,38,0.00,,,0.00,WUHU216HW,2013-02-21 19:36:00,
2013-02-21 12:41:00,47.9,23.4,29.93,WNW,293,13.2,13.2,38,0.00,,,0.00,WUHU216HW,2013-02-21 19:41:00,
2013-02-21 12:46:00,47.5,23.0,29.93,WSW,248,6.9,13.2,38,0.00,,,0.00,WUHU216HW,2013-02-21 19:46:00,
2013-02-21 12:51:00,47.7,23.2,29.93,West,270,4.9,13.2,38,0.00,,,0.00,WUHU216HW,2013-02-21 19:51:00,
2013-02-21 12:56:00,47.9,23.4,29.92,WNW,293,7.6,13.2,38,0.00,,,0.00,WUHU216HW,2013-02-21 19:56:00,
2013-02-21 13:01:00,47.7,23.2,29.92,WNW,293,4.3,13.2,38,0.00,,,0.00,WUHU216HW,2013-02-21 20:01:00,
2013-02-21 13:06:00,47.5,23.0,29.92,WNW,293,6.3,13.9,38,0.00,,,0.00,WUHU216HW,2013-02-21 20:06:00,
2013-02-21 13:11:00,47.5,23.0,29.91,WNW,293,6.9,13.9,38,0.00,,,0.00,WUHU216HW,2013-02-21 20:11:00,
2013-02-21 13:16:00,47.9,23.4,29.91,WSW,248,10.5,11.9,38,0.00,,,0.00,WUHU216HW,2013-02-21 20:16:00,
2013-02-21 13:21:00,48.6,23.3,29.91,WSW,248,9.2,12.8,37,0.00,,,0.00,WUHU216HW,2013-02-21 20:21:00,
2013-02-21 13:26:00,48.2,23.1,29.91,NNW,338,1.8,13.6,37,0.00,,,0.00,WUHU216HW,2013-02-21 20:26:00,
2013-02-21 13:31:00,48.6,24.0,29.90,SSW,203,5.1,13.6,38,0.00,,,0.00,WUHU216HW,2013-02-21 20:31:00,
2013-02-21 13:36:00,49.3,23.9,29.91,SW,225,6.5,13.4,37,0.00,,,0.00,WUHU216HW,2013-02-21 20:36:00,
2013-02-21 13:41:00,49.5,23.4,29.91,West,270,6.0,13.9,36,0.00,,,0.00,WUHU216HW,2013-02-21 20:41:00,
2013-02-21 13:46:00,49.7,23.6,29.90,NW,315,10.1,13.9,36,0.00,,,0.00,WUHU216HW,2013-02-21 20:46:00,
2013-02-21 13:51:00,49.3,23.3,29.90,West,270,3.8,12.3,36,0.00,,,0.00,WUHU216HW,2013-02-21 20:51:00,
2013-02-21 13:56:00,49.7,23.6,29.89,SE,135,3.4,11.2,36,0.00,,,0.00,WUHU216HW,2013-02-21 20:56:00,
2013-02-21 14:01:00,50.8,24.6,29.89,ESE,113,1.8,11.2,36,0.00,,,0.00,WUHU216HW,2013-02-21 21:01:00,
2013-02-21 14:06:00,51.3,23.7,29.89,WSW,248,6.3,6.3,34,0.00,,,0.00,WUHU216HW,2013-02-21 21:06:00,
2013-02-21 14:11:00,51.3,23.0,29.89,SW,225,3.1,9.2,33,0.00,,,0.00,WUHU216HW,2013-02-21 21:11:00,
2013-02-21 14:16:00,51.5,23.9,29.89,SSW,203,3.1,9.2,34,0.00,,,0.00,WUHU216HW,2013-02-21 21:16:00,
2013-02-21 14:21:00,51.7,24.0,29.88,SW,225,1.3,7.2,34,0.00,,,0.00,WUHU216HW,2013-02-21 21:21:00,
2013-02-21 14:26:00,52.0,23.7,29.88,WSW,248,3.8,7.2,33,0.00,,,0.00,WUHU216HW,2013-02-21 21:26:00,
2013-02-21 14:31:00,51.8,23.5,29.88,NW,315,4.7,12.8,33,0.00,,,0.00,WUHU216HW,2013-02-21 21:31:00,
2013-02-21 14:36:00,52.0,23.0,29.87,WNW,293,6.5,12.8,32,0.00,,,0.00,WUHU216HW,2013-02-21 21:36:00,
2013-02-21 14:41:00,52.6,23.4,29.87,SW,225,8.9,8.9,32,0.00,,,0.00,WUHU216HW,2013-02-21 21:41:00,
2013-02-21 14:46:00,52.4,22.6,29.87,WNW,293,4.7,10.7,31,0.00,,,0.00,WUHU216HW,2013-02-21 21:46:00,
2013-02-21 14:51:00,52.0,22.2,29.87,WSW,248,4.7,10.7,31,0.00,,,0.00,WUHU216HW,2013-02-21 21:51:00,
2013-02-21 14:56:00,52.2,22.4,29.87,SW,225,2.5,10.5,31,0.00,,,0.00,WUHU216HW,2013-02-21 21:56:00,
2013-02-21 15:01:00,52.4,22.6,29.87,WNW,293,3.6,10.5,31,0.00,,,0.00,WUHU216HW,2013-02-21 22:01:00,
2013-02-21 15:06:00,52.7,23.0,29.87,WSW,248,10.3,11.4,31,0.00,,,0.00,WUHU216HW,2013-02-21 22:06:00,
2013-02-21 15:11:00,52.6,22.8,29.86,WNW,293,4.3,14.3,31,0.00,,,0.00,WUHU216HW,2013-02-21 22:11:00,
2013-02-21 15:16:00,52.4,21.9,29.86,WSW,248,4.5,14.3,30,0.00,,,0.00,WUHU216HW,2013-02-21 22:16:00,
2013-02-21 15:21:00,52.2,22.4,29.86,West,270,7.8,11.4,31,0.00,,,0.00,WUHU216HW,2013-02-21 22:21:00,
2013-02-21 15:26:00,52.0,22.2,29.86,WSW,248,8.5,14.3,31,0.00,,,0.00,WUHU216HW,2013-02-21 22:26:00,
2013-02-21 15:31:00,52.2,22.4,29.87,WSW,248,6.3,14.3,31,0.00,,,0.00,WUHU216HW,2013-02-21 22:31:00,
2013-02-21 15:36:00,52.4,22.6,29.86,West,270,5.8,8.9,31,0.00,,,0.00,WUHU216HW,2013-02-21 22:36:00,
2013-02-21 15:41:00,52.4,22.6,29.86,West,270,7.4,9.8,31,0.00,,,0.00,WUHU216HW,2013-02-21 22:41:00,
2013-02-21 15:46:00,52.2,22.4,29.86,West,270,11.2,11.4,31,0.00,,,0.00,WUHU216HW,2013-02-21 22:46:00,
2013-02-21 15:51:00,51.8,22.8,29.86,WSW,248,6.9,11.6,32,0.00,,,0.00,WUHU216HW,2013-02-21 22:51:00,
2013-02-21 15:56:00,51.8,22.8,29.87,WSW,248,7.4,11.6,32,0.00,,,0.00,WUHU216HW,2013-02-21 22:56:00,
2013-02-21 16:01:00,52.2,23.1,29.87,West,270,2.7,9.2,32,0.00,,,0.00,WUHU216HW,2013-02-21 23:01:00,
2013-02-21 16:06:00,52.0,23.0,29.87,WSW,248,3.4,10.5,32,0.00,,,0.00,WUHU216HW,2013-02-21 23:06:00,
2013-02-21 16:11:00,51.8,22.8,29.87,SSW,203,7.6,11.2,32,0.00,,,0.00,WUHU216HW,2013-02-21 23:11:00,
2013-02-21 16:16:00,51.5,22.5,29.87,West,270,3.1,12.3,32,0.00,,,0.00,WUHU216HW,2013-02-21 23:16:00,
2013-02-21 16:21:00,51.3,22.3,29.87,West,270,6.7,12.3,32,0.00,,,0.00,WUHU216HW,2013-02-21 23:21:00,
2013-02-21 16:26:00,51.5,22.5,29.87,WSW,248,7.6,9.8,32,0.00,,,0.00,WUHU216HW,2013-02-21 23:26:00,
2013-02-21 16:31:00,51.3,23.0,29.87,WNW,293,7.2,12.1,33,0.00,,,0.00,WUHU216HW,2013-02-21 23:31:00,
2013-02-21 16:36:00,51.1,22.9,29.87,SW,225,3.1,12.1,33,0.00,,,0.00,WUHU216HW,2013-02-21 23:36:00,
2013-02-21 16:41:00,51.1,22.9,29.87,WSW,248,6.7,10.1,33,0.00,,,0.00,WUHU216HW,2013-02-21 23:41:00,
2013-02-21 16:46:00,50.9,22.7,29.87,West,270,9.2,10.1,33,0.00,,,0.00,WUHU216HW,2013-02-21 23:46:00,
2013-02-21 16:51:00,50.9,22.7,29.87,WNW,293,9.2,9.2,33,0.00,,,0.00,WUHU216HW,2013-02-21 23:51:00,
2013-02-21 16:56:00,50.6,22.3,29.87,West,270,8.5,10.1,33,0.00,,,0.00,WUHU216HW,2013-02-21 23:56:00,
2013-02-21 17:01:00,50.4,22.1,29.87,NW,315,4.9,11.0,33,0.00,,,0.00,WUHU216HW,2013-02-22 00:01:00,
2013-02-21 17:06:00,50.2,22.1,29.87,WNW,293,4.7,11.0,33,0.00,,,0.00,WUHU216HW,2013-02-22 00:06:00,
2013-02-21 17:11:00,50.2,22.7,29.87,WSW,248,8.3,9.2,34,0.00,,,0.00,WUHU216HW,2013-02-22 00:11:00,
2013-02-21 17:16:00,50.0,21.9,29.87,West,270,6.0,9.2,33,0.00,,,0.00,WUHU216HW,2013-02-22 00:16:00,
2013-02-21 17:21:00,49.7,22.2,29.87,WSW,248,10.7,10.7,34,0.00,,,0.00,WUHU216HW,2013-02-22 00:21:00,
2013-02-21 17:26:00,49.3,22.0,29.87,SW,225,7.8,12.1,34,0.00,,,0.00,WUHU216HW,2013-02-22 00:26:00,
2013-02-21 17:31:00,49.1,22.4,29.87,WNW,293,4.7,12.1,35,0.00,,,0.00,WUHU216HW,2013-02-22 00:31:00,
2013-02-21 17:36:00,48.8,22.1,29.88,WSW,248,6.9,10.5,35,0.00,,,0.00,WUHU216HW,2013-02-22 00:36:00,
2013-02-21 17:41:00,48.4,22.5,29.88,West,270,3.4,8.7,36,0.00,,,0.00,WUHU216HW,2013-02-22 00:41:00,
2013-02-21 17:46:00,48.1,22.9,29.88,SSW,203,7.8,8.7,37,0.00,,,0.00,WUHU216HW,2013-02-22 00:46:00,
2013-02-21 17:51:00,47.5,22.4,29.89,West,270,5.1,7.8,37,0.00,,,0.00,WUHU216HW,2013-02-22 00:51:00,
2013-02-21 17:56:00,47.3,22.9,29.88,North,0,3.6,7.8,38,0.00,,,0.00,WUHU216HW,2013-02-22 00:56:00,
2013-02-21 18:01:00,47.0,22.6,29.89,WSW,248,7.4,7.4,38,0.00,,,0.00,WUHU216HW,2013-02-22 01:01:00,
2013-02-21 18:06:00,46.6,22.9,29.89,WSW,248,3.6,7.4,39,0.00,,,0.00,WUHU216HW,2013-02-22 01:06:00,
2013-02-21 18:11:00,46.4,22.8,29.89,SW,225,4.3,5.4,39,0.00,,,0.00,WUHU216HW,2013-02-22 01:11:00,
2013-02-21 18:16:00,46.3,23.2,29.90,WNW,293,7.8,9.2,40,0.00,,,0.00,WUHU216HW,2013-02-22 01:16:00,
2013-02-21 18:21:00,46.1,23.0,29.90,WSW,248,4.3,9.2,40,0.00,,,0.00,WUHU216HW,2013-02-22 01:21:00,
2013-02-21 18:26:00,45.7,23.3,29.90,SW,225,2.5,7.8,41,0.00,,,0.00,WUHU216HW,2013-02-22 01:26:00,
2013-02-21 18:31:00,45.4,23.5,29.90,SW,225,1.8,5.1,42,0.00,,,0.00,WUHU216HW,2013-02-22 01:31:00,
2013-02-21 18:36:00,45.2,23.9,29.91,North,0,0.7,8.3,43,0.00,,,0.00,WUHU216HW,2013-02-22 01:36:00,
2013-02-21 18:41:00,45.0,23.8,29.91,NW,315,0.4,8.3,43,0.00,,,0.00,WUHU216HW,2013-02-22 01:41:00,
2013-02-21 18:46:00,44.8,23.6,29.91,NW,315,1.1,3.6,43,0.00,,,0.00,WUHU216HW,2013-02-22 01:46:00,
2013-02-21 18:51:00,44.6,24.5,29.91,NNW,338,4.7,6.0,45,0.00,,,0.00,WUHU216HW,2013-02-22 01:51:00,
2013-02-21 18:56:00,44.6,25.0,29.91,North,0,3.6,6.0,46,0.00,,,0.00,WUHU216HW,2013-02-22 01:56:00,
2013-02-21 19:01:00,44.5,24.8,29.91,NNW,338,2.7,4.9,46,0.00,,,0.00,WUHU216HW,2013-02-22 02:01:00,
2013-02-21 19:06:00,44.3,24.7,29.91,NW,315,4.0,6.0,46,0.00,,,0.00,WUHU216HW,2013-02-22 02:06:00,
2013-02-21 19:11:00,44.1,25.1,29.91,North,0,3.6,7.6,47,0.00,,,0.00,WUHU216HW,2013-02-22 02:11:00,
2013-02-21 19:16:00,43.9,24.9,29.91,NNW,338,3.6,7.6,47,0.00,,,0.00,WUHU216HW,2013-02-22 02:16:00,
2013-02-21 19:21:00,43.7,24.8,29.91,NNW,338,2.9,7.2,47,0.00,,,0.00,WUHU216HW,2013-02-22 02:21:00,
2013-02-21 19:26:00,43.6,24.0,29.91,North,0,3.6,5.6,46,0.00,,,0.00,WUHU216HW,2013-02-22 02:26:00,
2013-02-21 19:31:00,43.6,24.0,29.91,NNE,23,2.9,6.0,46,0.00,,,0.00,WUHU216HW,2013-02-22 02:31:00,
2013-02-21 19:36:00,43.6,24.0,29.91,North,0,0.4,6.0,46,0.00,,,0.00,WUHU216HW,2013-02-22 02:36:00,
2013-02-21 19:41:00,43.4,23.9,29.91,NNE,23,1.8,4.5,46,0.00,,,0.00,WUHU216HW,2013-02-22 02:41:00,
2013-02-21 19:46:00,43.2,23.8,29.91,North,0,1.1,4.5,46,0.00,,,0.00,WUHU216HW,2013-02-22 02:46:00,
2013-02-21 19:51:00,43.0,23.6,29.91,NNE,23,2.5,4.7,46,0.00,,,0.00,WUHU216HW,2013-02-22 02:51:00,
2013-02-21 19:56:00,42.8,23.4,29.92,NNE,23,2.0,4.7,46,0.00,,,0.00,WUHU216HW,2013-02-22 02:56:00,
2013-02-21 20:01:00,42.7,23.2,29.91,NE,45,1.8,3.8,46,0.00,,,0.00,WUHU216HW,2013-02-22 03:01:00,
2013-02-21 20:06:00,42.5,23.6,29.91,NNE,23,1.8,3.8,47,0.00,,,0.00,WUHU216HW,2013-02-22 03:06:00,
2013-02-21 20:11:00,42.3,23.9,29.91,North,0,3.1,3.8,48,0.00,,,0.00,WUHU216HW,2013-02-22 03:11:00,
2013-02-21 20:16:00,42.3,23.9,29.91,North,0,1.3,3.8,48,0.00,,,0.00,WUHU216HW,2013-02-22 03:16:00,
2013-02-21 20:21:00,42.3,23.4,29.91,North,0,3.6,4.0,47,0.00,,,0.00,WUHU216HW,2013-02-22 03:21:00,
2013-02-21 20:26:00,42.1,23.8,29.92,North,0,3.4,4.0,48,0.00,,,0.00,WUHU216HW,2013-02-22 03:26:00,
2013-02-21 20:31:00,42.1,23.2,29.92,North,0,1.8,4.0,47,0.00,,,0.00,WUHU216HW,2013-02-22 03:31:00,
2013-02-21 20:36:00,42.1,23.2,29.92,NNW,338,0.4,3.1,47,0.00,,,0.00,WUHU216HW,2013-02-22 03:36:00,
2013-02-21 20:41:00,41.8,22.9,29.92,North,0,0.0,2.0,47,0.00,,,0.00,WUHU216HW,2013-02-22 03:41:00,
2013-02-21 20:46:00,41.4,23.0,29.93,NNW,338,0.4,1.1,48,0.00,,,0.00,WUHU216HW,2013-02-22 03:46:00,
2013-02-21 20:51:00,41.0,22.7,29.93,NNE,23,0.2,1.1,48,0.00,,,0.00,WUHU216HW,2013-02-22 03:51:00,
2013-02-21 20:56:00,40.7,22.4,29.93,North,0,0.4,2.5,48,0.00,,,0.00,WUHU216HW,2013-02-22 03:56:00,
2013-02-21 21:01:00,40.7,22.4,29.93,North,0,1.3,2.9,48,0.00,,,0.00,WUHU216HW,2013-02-22 04:01:00,
2013-02-21 21:06:00,40.7,22.4,29.93,North,0,1.1,2.9,48,0.00,,,0.00,WUHU216HW,2013-02-22 04:06:00,
2013-02-21 21:11:00,40.7,22.4,29.93,NNW,338,0.0,2.0,48,0.00,,,0.00,WUHU216HW,2013-02-22 04:11:00,
2013-02-21 21:16:00,40.5,22.2,29.93,North,0,0.4,2.0,48,0.00,,,0.00,WUHU216HW,2013-02-22 04:16:00,
2013-02-21 21:21:00,40.3,22.1,29.93,NNE,23,0.4,1.8,48,0.00,,,0.00,WUHU216HW,2013-02-22 04:21:00,
2013-02-21 21:26:00,40.0,22.2,29.92,North,0,0.7,1.1,49,0.00,,,0.00,WUHU216HW,2013-02-22 04:26:00,
2013-02-21 21:31:00,39.8,22.2,29.93,NNW,338,0.4,2.2,49,0.00,,,0.00,WUHU216HW,2013-02-22 04:31:00,
2013-02-21 21:36:00,39.6,22.0,29.92,ENE,68,0.7,2.2,49,0.00,,,0.00,WUHU216HW,2013-02-22 04:36:00,
2013-02-21 21:41:00,39.6,22.0,29.93,ENE,68,0.2,2.5,49,0.00,,,0.00,WUHU216HW,2013-02-22 04:41:00,
2013-02-21 21:46:00,39.4,21.8,29.93,ENE,68,1.3,2.5,49,0.00,,,0.00,WUHU216HW,2013-02-22 04:46:00,
2013-02-21 21:51:00,39.2,21.6,29.93,West,270,0.0,1.3,49,0.00,,,0.00,WUHU216HW,2013-02-22 04:51:00,
2013-02-21 21:56:00,39.1,21.4,29.93,NNE,23,0.0,1.3,49,0.00,,,0.00,WUHU216HW,2013-02-22 04:56:00,
2013-02-21 22:00:00,38.9,21.3,29.93,NNE,23,0.0,0.4,49,0.00,,,0.00,WUHU216HW,2013-02-22 05:00:00,
2013-02-21 22:05:00,38.9,22.2,29.93,East,90,1.6,3.4,51,0.00,,,0.00,WUHU216HW,2013-02-22 05:05:00,
2013-02-21 22:10:00,39.6,22.0,29.93,ENE,68,2.7,8.7,49,0.00,,,0.00,WUHU216HW,2013-02-22 05:10:00,
2013-02-21 22:15:00,40.1,22.4,29.93,North,0,0.0,8.7,49,0.00,,,0.00,WUHU216HW,2013-02-22 05:15:00,
2013-02-21 22:20:00,40.1,22.4,29.93,NW,315,0.4,3.6,49,0.00,,,0.00,WUHU216HW,2013-02-22 05:20:00,
2013-02-21 22:25:00,39.8,22.2,29.93,NNE,23,1.3,2.5,49,0.00,,,0.00,WUHU216HW,2013-02-22 05:25:00,
2013-02-21 22:30:00,39.6,22.0,29.93,East,90,3.1,4.3,49,0.00,,,0.00,WUHU216HW,2013-02-22 05:30:00,
2013-02-21 22:35:00,39.6,22.0,29.93,NNE,23,2.9,4.3,49,0.00,,,0.00,WUHU216HW,2013-02-22 05:35:00,
2013-02-21 22:40:00,39.8,22.2,29.93,NNE,23,2.7,6.3,49,0.00,,,0.00,WUHU216HW,2013-02-22 05:40:00,
2013-02-21 22:45:00,40.0,22.2,29.93,NNE,23,2.0,6.3,49,0.00,,,0.00,WUHU216HW,2013-02-22 05:45:00,
2013-02-21 22:50:00,40.0,22.2,29.93,NNE,23,1.8,4.5,49,0.00,,,0.00,WUHU216HW,2013-02-22 05:50:00,
2013-02-21 22:55:00,40.0,22.2,29.93,NNE,23,2.5,4.5,49,0.00,,,0.00,WUHU216HW,2013-02-22 05:55:00,
2013-02-21 23:00:00,40.0,22.2,29.93,NNE,23,2.0,4.5,49,0.00,,,0.00,WUHU216HW,2013-02-22 06:00:00,
2013-02-21 23:05:00,40.0,22.2,29.93,NNW,338,1.6,4.0,49,0.00,,,0.00,WUHU216HW,2013-02-22 06:05:00,
2013-02-21 23:10:00,39.8,22.2,29.93,NNW,338,0.0,2.5,49,0.00,,,0.00,WUHU216HW,2013-02-22 06:10:00,
2013-02-21 23:15:00,39.4,21.2,29.94,NNE,23,2.5,2.5,48,0.00,,,0.00,WUHU216HW,2013-02-22 06:15:00,
2013-02-21 23:20:00,39.2,21.1,29.94,North,0,2.2,2.5,48,0.00,,,0.00,WUHU216HW,2013-02-22 06:20:00,
2013-02-21 23:25:00,39.2,21.6,29.93,NE,45,0.7,2.5,49,0.00,,,0.00,WUHU216HW,2013-02-22 06:25:00,
2013-02-21 23:30:00,39.1,21.4,29.93,NNE,23,0.4,2.5,49,0.00,,,0.00,WUHU216HW,2013-02-22 06:30:00,
2013-02-21 23:35:00,38.9,21.3,29.94,NNE,23,0.4,1.8,49,0.00,,,0.00,WUHU216HW,2013-02-22 06:35:00,
2013-02-21 23:40:00,38.5,21.0,29.94,NNE,23,0.2,1.8,49,0.00,,,0.00,WUHU216HW,2013-02-22 06:40:00,
2013-02-21 23:45:00,38.5,21.5,29.94,North,0,1.8,1.8,50,0.00,,,0.00,WUHU216HW,2013-02-22 06:45:00,
2013-02-21 23:50:00,38.5,22.0,29.94,NW,315,0.7,2.2,51,0.00,,,0.00,WUHU216HW,2013-02-22 06:50:00,
2013-02-21 23:55:00,38.5,21.5,29.94,NNE,23,0.2,2.2,50,0.00,,,0.00,WUHU216HW,2013-02-22 06:55:00,